{"data":{"norad_id":53252,"epoch":"2026-05-25T05:07:02.546688Z","epoch_age_seconds":52572,"freshness":"FRESH","line1":"1 53252U 22086L   26145.21322392 -.00000014  00000+0  17217-4 0  9994","line2":"2 53252  53.2127 210.5448 0001111  89.7291 270.3828 15.08834520212633","mean_motion":15.0883452,"eccentricity":0.0001111,"inclination_deg":53.2127,"raan_deg":210.5448,"arg_perigee_deg":89.7291,"mean_anomaly_deg":270.3828,"bstar":1.7217e-5,"rev_number":21263,"period_min":95.437901301463,"perigee_km":538.99156081033,"apogee_km":540.52871755466,"semimajor_km":6917.8971391825,"source":"CELESTRAK","updated_at":"2026-05-25T13:38:17.361932Z"}}